Flag for Belgium

Past Weather in Leuven, Flemish Brabant, Belgium — Yesterday and Last 2 Weeks

Now
50 °F

Cool.


Feels Like: 49 °F
Forecast: 70 / 55 °F
Wind: 3 mph from Southwest

Location: Brussels National Airport
Current Time: Sep 22, 2020 at 7:48:56 am
Latest Report: Sep 22, 2020 at 6:50 am
Visibility: 2 mi
Pressure29.89 "Hg
Humidity: 94%
Dew Point: 48 °F
Location of LeuvenLocation

Past Weather in Leuven — Graph

°F

Leuven Temperature Yesterday

Maximum temperature yesterday: 75 °F (at 4:20 pm)
Minimum temperature yesterday: 45 °F (at 5:50 am)
Average temperature yesterday: 60 °F

High & Low Weather Summary for the Past Weeks

 TemperatureHumidityPressure
High93 °F (Sep 15, 3:20 pm)100% (Sep 14, 6:50 am)30.36 "Hg (Sep 14, 6:50 am)
Low45 °F (Sep 18, 6:20 am)23% (Sep 15, 3:50 pm)29.89 "Hg (Sep 22, 5:20 am)
Average64 °F67%30.15 "Hg
* Reported Sep 7 6:20 am — Sep 22 6:50 am, Leuven. Weather by CustomWeather, © 2020

Note: Actual official high and low records may vary slightly from our data, if they occured in-between our weather recording intervals... More about our weather records

Leuven Weather History for the Previous 24 Hours

Scroll right to see more
 ConditionsComfort  
Time TempWeatherWind HumidityBarometerVisibility
6:50 am
Tue, Sep 22
50 °FCool.3 mph94%29.89 "Hg2 mi
6:20 am50 °FCool.3 mph94%29.89 "Hg2 mi
5:50 am50 °FCool.2 mph94%29.89 "Hg1 mi
5:20 am50 °FFog.2 mph94%29.89 "Hg1 mi
4:50 am50 °FFog.2 mph94%29.92 "Hg1 mi
4:20 am52 °FFog.2 mph94%29.92 "Hg2 mi
3:50 am54 °FFog.2 mph94%29.92 "Hg2 mi
3:20 am54 °FFog.3 mph94%29.92 "Hg2 mi
2:50 am54 °FClear.5 mph94%29.92 "Hg4 mi
2:20 am54 °FClear.3 mph88%29.95 "Hg10 mi
1:50 am55 °FClear.3 mph88%29.95 "Hg10 mi
1:20 am55 °FClear.5 mph88%29.95 "Hg10 mi
12:50 am55 °FClear.3 mph88%29.95 "Hg10 mi
12:20 am55 °FClear.3 mph88%29.95 "Hg10 mi
11:50 pm
Mon, Sep 21
59 °FClear.5 mph77%29.95 "Hg10 mi
11:20 pm59 °FClear.5 mph82%29.95 "Hg10 mi
10:50 pm59 °FClear.2 mph77%29.95 "Hg10 mi
10:20 pm61 °FClear.3 mph72%29.95 "Hg10 mi
9:50 pm61 °FClear.3 mph68%29.95 "Hg10 mi
9:20 pm63 °FClear.3 mph64%29.95 "Hg10 mi
8:50 pm61 °FClear.2 mph68%29.95 "Hg10 mi
8:20 pm63 °FClear.3 mph64%29.95 "Hg10 mi
7:50 pm66 °FClear.2 mph49%29.95 "Hg10 mi
7:20 pm68 °FSunny.2 mph49%29.95 "Hg10 mi
6:50 pm72 °FPassing clouds.3 mph44%29.95 "HgN/A
6:20 pm73 °FPassing clouds.3 mph41%29.98 "HgN/A
5:50 pm75 °FPassing clouds.3 mph36%29.98 "HgN/A
5:20 pm75 °FPassing clouds.3 mph34%29.98 "HgN/A
4:50 pm75 °FPassing clouds.3 mph36%29.98 "HgN/A
4:20 pm75 °FSunny.2 mph36%29.98 "Hg10 mi
3:50 pm73 °FSunny.2 mph38%29.98 "Hg10 mi
3:20 pm73 °FSunny.No wind38%29.98 "Hg10 mi
2:50 pm73 °FSunny.2 mph38%30.01 "Hg10 mi
1:50 pm70 °FPassing clouds.3 mph43%30.01 "HgN/A
1:20 pm68 °FSunny.2 mph49%30.01 "Hg10 mi
12:50 pm66 °FSunny.3 mph52%30.04 "Hg10 mi
12:20 pm64 °FPassing clouds.3 mph52%30.04 "HgN/A
11:50 am63 °FSunny.2 mph59%30.04 "Hg10 mi
11:20 am61 °FSunny.2 mph59%30.04 "Hg10 mi
10:50 am57 °FSunny.1 mph67%30.04 "Hg10 mi
10:20 am55 °FSunny.1 mph72%30.04 "Hg10 mi
9:50 am54 °FSunny.2 mph82%30.04 "Hg10 mi
9:20 am52 °FSunny.2 mph82%30.04 "Hg10 mi
8:50 am50 °FSunny.1 mph88%30.04 "Hg10 mi
8:20 am48 °FSunny.1 mph87%30.01 "Hg10 mi
7:50 am46 °FSunny.1 mph93%30.01 "Hg10 mi
7:20 am46 °FClear.2 mph87%30.01 "Hg10 mi
Weather by CustomWeather, © 2020

See weather overview